Location: ???? ??????? ????
(31.2176°N, 31.6797°E)
Time: 10:59:03
(UTC+00:00)

Cosmos 1992 Rocket - Pass Details

Date: 29 October 2020
Orbit: 759 x 765 km, 74.0° (Epoch: 26 November)

Event Time Altitude Azimuth Distance (km) Brightness Sun altitude
Rises 15:47:09 0° 190° (S) 3,203 7.5 -9.2°
Reaches altitude 10° 15:49:31 10° 188° (S) 2,280 6.7 -9.7°
Maximum altitude 15:54:39 72° 104° (ESE) 797 3.9 -10.8°
Drops below altitude 10° 15:59:50 10° 21° (NNE) 2,291 6.2 -11.9°
Sets 16:02:12 0° 19° (NNE) 3,220 7.0 -12.4°
